Time,TemperatureF,DewpointF,PressureIn,WindDirection,WindDirectionDegrees,WindSpeedMPH,WindSpeedGustMPH,Humidity,HourlyPrecipIn,Conditions,Clouds,dailyrainin,SolarRadiationWatts/m^2,SoftwareType,DateUTC
2013-08-20 00:00:00,63.0,61.5,30.07,WNW,289,0.0,0.0,95,0.00,,---,0.00,0.00,VWS V14.01,2013-08-20 04:00:00,
2013-08-20 00:01:00,60.6,59.5,30.07,WNW,289,0.0,0.0,96,0.00,,---,0.00,0.00,VWS V14.01,2013-08-20 04:01:00,
2013-08-20 00:06:00,60.4,59.3,30.07,WNW,289,0.0,0.0,96,0.00,,---,0.00,0.00,VWS V14.01,2013-08-20 04:06:00,
2013-08-20 00:11:00,60.3,59.2,30.07,WNW,289,0.0,0.0,96,0.00,,---,0.00,0.00,VWS V14.01,2013-08-20 04:11:00,
2013-08-20 00:16:00,60.2,59.1,30.07,WNW,289,0.0,0.0,96,0.00,,---,0.00,0.00,VWS V14.01,2013-08-20 04:16:00,
2013-08-20 00:21:00,60.1,59.0,30.08,WNW,289,0.0,0.0,96,0.00,,---,0.00,0.00,VWS V14.01,2013-08-20 04:21:00,
2013-08-20 00:26:00,60.1,59.0,30.08,WNW,289,0.0,0.0,96,0.00,,---,0.00,0.00,VWS V14.01,2013-08-20 04:26:00,
2013-08-20 00:30:00,61.6,60.2,30.07,WNW,289,0.0,0.0,95,0.00,,---,0.00,0.00,VWS V14.01,2013-08-20 04:30:00,
2013-08-20 00:31:00,60.0,58.9,30.08,WNW,289,0.0,0.0,96,0.00,,---,0.00,0.00,VWS V14.01,2013-08-20 04:31:00,
2013-08-20 00:36:00,59.8,58.7,30.08,WNW,289,0.0,0.0,96,0.00,,---,0.00,0.00,VWS V14.01,2013-08-20 04:36:00,
2013-08-20 00:41:00,59.6,58.5,30.08,WNW,289,0.0,0.0,96,0.00,,---,0.00,0.00,VWS V14.01,2013-08-20 04:41:00,
2013-08-20 00:46:00,59.4,58.3,30.08,WNW,289,0.0,0.0,96,0.00,,---,0.00,0.00,VWS V14.01,2013-08-20 04:46:00,
2013-08-20 00:51:00,59.2,58.1,30.08,WNW,289,0.0,0.0,96,0.00,,---,0.00,0.00,VWS V14.01,2013-08-20 04:51:00,
2013-08-20 00:56:00,59.1,58.0,30.08,WNW,289,0.0,0.0,96,0.00,,---,0.00,0.00,VWS V14.01,2013-08-20 04:56:00,
2013-08-20 01:00:00,60.6,59.5,30.07,WNW,289,0.0,0.0,96,0.00,,---,0.00,0.00,VWS V14.01,2013-08-20 05:00:00,
2013-08-20 01:01:00,58.9,57.8,30.08,WNW,289,0.0,0.0,96,0.00,,---,0.00,0.00,VWS V14.01,2013-08-20 05:01:00,
2013-08-20 01:06:00,58.8,57.7,30.08,WNW,289,0.0,0.0,96,0.00,,---,0.00,0.00,VWS V14.01,2013-08-20 05:06:00,
2013-08-20 01:11:00,58.8,57.7,30.08,WNW,289,0.0,0.0,96,0.00,,---,0.00,0.00,VWS V14.01,2013-08-20 05:11:00,
2013-08-20 01:16:00,58.9,58.0,30.08,WNW,289,0.0,0.0,97,0.00,,---,0.00,0.00,VWS V14.01,2013-08-20 05:16:00,
2013-08-20 01:21:00,58.9,58.0,30.08,WNW,289,0.0,0.0,97,0.00,,---,0.00,0.00,VWS V14.01,2013-08-20 05:21:00,
2013-08-20 01:26:00,58.9,58.0,30.08,WNW,289,0.0,0.0,97,0.00,,---,0.00,0.00,VWS V14.01,2013-08-20 05:26:00,
2013-08-20 01:30:00,60.0,58.9,30.08,WNW,289,0.0,0.0,96,0.00,,---,0.00,0.00,VWS V14.01,2013-08-20 05:30:00,
2013-08-20 01:31:00,58.8,58.0,30.08,WNW,289,0.0,0.0,97,0.00,,---,0.00,0.00,VWS V14.01,2013-08-20 05:31:00,
2013-08-20 01:36:00,58.7,57.6,30.08,WNW,289,0.0,0.0,96,0.00,,---,0.00,0.00,VWS V14.01,2013-08-20 05:36:00,
2013-08-20 01:41:00,58.7,57.8,30.08,WNW,289,0.0,0.0,97,0.00,,---,0.00,0.00,VWS V14.01,2013-08-20 05:41:00,
2013-08-20 01:46:00,58.7,57.8,30.08,WNW,289,0.0,0.0,97,0.00,,---,0.00,0.00,VWS V14.01,2013-08-20 05:46:00,
2013-08-20 01:51:00,58.7,57.8,30.08,WNW,289,0.0,0.0,97,0.00,,---,0.00,0.00,VWS V14.01,2013-08-20 05:51:00,
2013-08-20 01:56:00,58.6,57.8,30.08,WNW,289,0.0,0.0,97,0.00,,---,0.00,0.00,VWS V14.01,2013-08-20 05:56:00,
2013-08-20 02:00:00,59.0,57.9,30.08,WNW,289,0.0,0.0,96,0.00,,---,0.00,0.00,VWS V14.01,2013-08-20 06:00:00,
2013-08-20 02:01:00,58.6,57.8,30.08,WNW,289,0.0,0.0,97,0.00,,---,0.00,0.00,VWS V14.01,2013-08-20 06:01:00,
2013-08-20 02:06:00,58.5,57.7,30.08,WNW,289,0.0,0.0,97,0.00,,---,0.00,0.00,VWS V14.01,2013-08-20 06:06:00,
2013-08-20 02:11:00,58.4,57.6,30.08,WNW,289,0.0,0.0,97,0.00,,---,0.00,0.00,VWS V14.01,2013-08-20 06:11:00,
2013-08-20 02:16:00,58.3,57.5,30.08,WNW,289,0.0,0.0,97,0.00,,---,0.00,0.00,VWS V14.01,2013-08-20 06:16:00,
2013-08-20 02:21:00,58.2,57.4,30.08,WNW,289,0.0,0.0,97,0.00,,---,0.00,0.00,VWS V14.01,2013-08-20 06:21:00,
2013-08-20 02:26:00,58.1,57.3,30.08,WNW,289,0.0,0.0,97,0.00,,---,0.00,0.00,VWS V14.01,2013-08-20 06:26:00,
2013-08-20 02:30:00,58.8,58.0,30.08,WNW,289,0.0,0.0,97,0.00,,---,0.00,0.00,VWS V14.01,2013-08-20 06:30:00,
2013-08-20 02:31:00,58.1,57.3,30.08,WNW,289,0.0,0.0,97,0.00,,---,0.00,0.00,VWS V14.01,2013-08-20 06:31:00,
2013-08-20 02:36:00,58.1,57.3,30.08,WNW,289,0.0,0.0,97,0.00,,---,0.00,0.00,VWS V14.01,2013-08-20 06:36:00,
2013-08-20 02:41:00,58.1,57.3,30.08,WNW,289,0.0,0.0,97,0.00,,---,0.00,0.00,VWS V14.01,2013-08-20 06:41:00,
2013-08-20 02:46:00,58.1,57.3,30.08,WNW,289,0.0,0.0,97,0.00,,---,0.00,0.00,VWS V14.01,2013-08-20 06:46:00,
2013-08-20 02:51:00,58.1,57.3,30.08,WNW,289,0.0,0.0,97,0.00,,---,0.00,0.00,VWS V14.01,2013-08-20 06:51:00,
2013-08-20 02:56:00,58.1,57.3,30.08,WNW,289,0.0,0.0,97,0.00,,---,0.00,0.00,VWS V14.01,2013-08-20 06:56:00,
2013-08-20 03:00:00,58.6,57.8,30.08,WNW,289,0.0,0.0,97,0.00,,---,0.00,0.00,VWS V14.01,2013-08-20 07:00:00,
2013-08-20 03:01:00,58.1,57.3,30.08,WNW,289,0.0,0.0,97,0.00,,---,0.00,0.00,VWS V14.01,2013-08-20 07:01:00,
2013-08-20 03:06:00,58.1,57.3,30.08,WNW,289,0.0,0.0,97,0.00,,---,0.00,0.00,VWS V14.01,2013-08-20 07:06:00,
2013-08-20 03:11:00,58.0,57.2,30.08,WNW,289,0.0,0.0,97,0.00,,---,0.00,0.00,VWS V14.01,2013-08-20 07:11:00,
2013-08-20 03:16:00,57.9,57.1,30.08,WNW,289,0.0,0.0,97,0.00,,---,0.00,0.00,VWS V14.01,2013-08-20 07:16:00,
2013-08-20 03:21:00,57.8,57.0,30.08,WNW,289,0.0,0.0,97,0.00,,---,0.00,0.00,VWS V14.01,2013-08-20 07:21:00,
2013-08-20 03:26:00,57.7,56.9,30.08,WNW,289,0.0,0.0,97,0.00,,---,0.00,0.00,VWS V14.01,2013-08-20 07:26:00,
2013-08-20 03:30:00,58.1,57.3,30.08,WNW,289,0.0,0.0,97,0.00,,---,0.00,0.00,VWS V14.01,2013-08-20 07:30:00,
2013-08-20 03:31:00,57.5,56.7,30.08,WNW,289,0.0,0.0,97,0.00,,---,0.00,0.00,VWS V14.01,2013-08-20 07:31:00,
2013-08-20 03:36:00,57.4,56.6,30.08,WNW,289,0.0,0.0,97,0.00,,---,0.00,0.00,VWS V14.01,2013-08-20 07:36:00,
2013-08-20 03:41:00,57.3,56.5,30.08,WNW,289,0.0,0.0,97,0.00,,---,0.00,0.00,VWS V14.01,2013-08-20 07:41:00,
2013-08-20 03:46:00,57.2,56.4,30.08,WNW,289,0.0,0.0,97,0.00,,---,0.00,0.00,VWS V14.01,2013-08-20 07:46:00,
2013-08-20 03:51:00,57.1,56.3,30.08,WNW,289,0.0,0.0,97,0.00,,---,0.00,0.00,VWS V14.01,2013-08-20 07:51:00,
2013-08-20 03:56:00,56.8,56.0,30.08,WNW,289,0.0,0.0,97,0.00,,---,0.00,0.00,VWS V14.01,2013-08-20 07:56:00,
2013-08-20 04:00:00,58.1,57.3,30.08,WNW,289,0.0,0.0,97,0.00,,---,0.00,0.00,VWS V14.01,2013-08-20 08:00:00,
2013-08-20 04:01:00,56.6,55.8,30.08,WNW,289,0.0,0.0,97,0.00,,---,0.00,0.00,VWS V14.01,2013-08-20 08:01:00,
2013-08-20 04:06:00,56.4,55.6,30.08,WNW,289,0.0,0.0,97,0.00,,---,0.00,0.00,VWS V14.01,2013-08-20 08:06:00,
2013-08-20 04:11:00,56.3,55.5,30.08,WNW,289,0.0,0.0,97,0.00,,---,0.00,0.00,VWS V14.01,2013-08-20 08:11:00,
2013-08-20 04:16:00,56.2,55.4,30.08,WNW,289,0.0,0.0,97,0.00,,---,0.00,0.00,VWS V14.01,2013-08-20 08:16:00,
2013-08-20 04:21:00,56.1,55.3,30.08,WNW,289,0.0,0.0,97,0.00,,---,0.00,0.00,VWS V14.01,2013-08-20 08:21:00,
2013-08-20 04:26:00,56.0,55.2,30.08,WNW,289,0.0,0.0,97,0.00,,---,0.00,0.00,VWS V14.01,2013-08-20 08:26:00,
2013-08-20 04:30:00,57.6,56.8,30.08,WNW,289,0.0,0.0,97,0.00,,---,0.00,0.00,VWS V14.01,2013-08-20 08:30:00,
2013-08-20 04:31:00,55.8,55.0,30.09,WNW,289,0.0,0.0,97,0.00,,---,0.00,0.00,VWS V14.01,2013-08-20 08:31:00,
2013-08-20 04:36:00,55.7,54.9,30.09,WNW,289,0.0,0.0,97,0.00,,---,0.00,0.00,VWS V14.01,2013-08-20 08:36:00,
2013-08-20 04:41:00,55.7,54.9,30.09,WNW,289,0.0,0.0,97,0.00,,---,0.00,0.00,VWS V14.01,2013-08-20 08:41:00,
2013-08-20 04:46:00,55.6,54.8,30.09,WNW,289,0.0,0.0,97,0.00,,---,0.00,0.00,VWS V14.01,2013-08-20 08:46:00,
2013-08-20 04:51:00,55.6,54.8,30.09,WNW,289,0.0,0.0,97,0.00,,---,0.00,0.00,VWS V14.01,2013-08-20 08:51:00,
2013-08-20 04:56:00,55.6,54.8,30.09,WNW,289,0.0,0.0,97,0.00,,---,0.00,0.00,VWS V14.01,2013-08-20 08:56:00,
2013-08-20 05:00:00,56.6,55.8,30.08,WNW,289,0.0,0.0,97,0.00,,---,0.00,0.00,VWS V14.01,2013-08-20 09:00:00,
2013-08-20 05:01:00,55.5,54.7,30.09,WNW,289,0.0,0.0,97,0.00,,---,0.00,0.00,VWS V14.01,2013-08-20 09:01:00,
2013-08-20 05:06:00,55.6,54.8,30.09,WNW,289,0.0,0.0,97,0.00,,---,0.00,0.00,VWS V14.01,2013-08-20 09:06:00,
2013-08-20 05:11:00,55.6,54.8,30.10,WNW,289,0.0,0.0,97,0.00,,---,0.00,0.00,VWS V14.01,2013-08-20 09:11:00,
2013-08-20 05:16:00,55.6,54.8,30.10,WNW,289,0.0,0.0,97,0.00,,---,0.00,0.00,VWS V14.01,2013-08-20 09:16:00,
2013-08-20 05:21:00,55.6,54.8,30.10,WNW,289,0.0,0.0,97,0.00,,---,0.00,0.00,VWS V14.01,2013-08-20 09:21:00,
2013-08-20 05:26:00,55.5,54.7,30.10,WNW,289,0.0,0.0,97,0.00,,---,0.00,0.00,VWS V14.01,2013-08-20 09:26:00,
2013-08-20 05:30:00,55.9,55.1,30.09,WNW,289,0.0,0.0,97,0.00,,---,0.00,0.00,VWS V14.01,2013-08-20 09:30:00,
2013-08-20 05:31:00,55.4,54.6,30.10,WNW,289,0.0,0.0,97,0.00,,---,0.00,0.00,VWS V14.01,2013-08-20 09:31:00,
2013-08-20 05:36:00,55.3,54.5,30.10,WNW,289,0.0,0.0,97,0.00,,---,0.00,0.00,VWS V14.01,2013-08-20 09:36:00,
2013-08-20 05:41:00,55.1,54.3,30.10,WNW,289,0.0,0.0,97,0.00,,---,0.00,0.00,VWS V14.01,2013-08-20 09:41:00,
2013-08-20 05:46:00,55.0,54.2,30.10,WNW,289,0.0,0.0,97,0.00,,---,0.00,0.00,VWS V14.01,2013-08-20 09:46:00,
2013-08-20 05:51:00,54.9,54.1,30.10,WNW,289,0.0,0.0,97,0.00,,---,0.00,0.00,VWS V14.01,2013-08-20 09:51:00,
2013-08-20 05:56:00,54.8,54.0,30.11,WNW,289,0.0,0.0,97,0.00,,---,0.00,0.00,VWS V14.01,2013-08-20 09:56:00,
2013-08-20 06:00:00,55.5,54.7,30.09,WNW,289,0.0,0.0,97,0.00,,---,0.00,0.00,VWS V14.01,2013-08-20 10:00:00,
2013-08-20 06:01:00,54.7,53.9,30.11,WNW,289,0.0,0.0,97,0.00,,---,0.00,0.00,VWS V14.01,2013-08-20 10:01:00,
2013-08-20 06:06:00,54.8,54.2,30.11,WNW,289,0.0,0.0,98,0.00,,---,0.00,0.00,VWS V14.01,2013-08-20 10:06:00,
2013-08-20 06:11:00,54.8,54.2,30.11,WNW,289,0.0,0.0,98,0.00,,---,0.00,0.00,VWS V14.01,2013-08-20 10:11:00,
2013-08-20 06:16:00,54.8,54.2,30.12,WNW,289,0.0,0.0,98,0.00,,---,0.00,0.00,VWS V14.01,2013-08-20 10:16:00,
2013-08-20 06:21:00,54.9,54.3,30.12,WNW,289,0.0,0.0,98,0.00,,---,0.00,7.00,VWS V14.01,2013-08-20 10:21:00,
2013-08-20 06:26:00,55.0,54.5,30.12,WNW,289,0.0,0.0,98,0.00,,---,0.00,11.00,VWS V14.01,2013-08-20 10:26:00,
2013-08-20 06:30:00,55.4,54.6,30.10,WNW,289,0.0,0.0,97,0.00,,---,0.00,0.00,VWS V14.01,2013-08-20 10:30:00,
2013-08-20 06:31:00,55.2,54.7,30.12,WNW,289,0.0,0.0,98,0.00,,---,0.00,14.00,VWS V14.01,2013-08-20 10:31:00,
2013-08-20 06:36:00,55.3,54.8,30.12,WNW,289,0.0,0.0,98,0.00,,---,0.00,16.00,VWS V14.01,2013-08-20 10:36:00,
2013-08-20 06:41:00,55.3,54.8,30.12,WNW,289,0.0,0.0,98,0.00,,---,0.00,21.00,VWS V14.01,2013-08-20 10:41:00,
2013-08-20 06:46:00,55.4,54.8,30.13,WNW,289,0.0,0.0,98,0.00,,---,0.00,25.00,VWS V14.01,2013-08-20 10:46:00,
2013-08-20 06:51:00,55.5,55.0,30.13,WNW,289,0.0,0.0,98,0.00,,---,0.00,32.00,VWS V14.01,2013-08-20 10:51:00,
2013-08-20 06:56:00,55.6,55.0,30.13,WNW,289,0.0,0.0,98,0.00,,---,0.00,35.00,VWS V14.01,2013-08-20 10:56:00,
2013-08-20 07:00:00,54.8,54.0,30.11,WNW,289,0.0,0.0,97,0.00,,---,0.00,0.00,VWS V14.01,2013-08-20 11:00:00,
2013-08-20 07:01:00,55.7,55.2,30.13,WNW,289,0.0,0.0,98,0.00,,---,0.00,42.00,VWS V14.01,2013-08-20 11:01:00,
2013-08-20 07:06:00,55.9,55.3,30.13,WNW,289,0.0,0.0,98,0.00,,---,0.00,47.00,VWS V14.01,2013-08-20 11:06:00,
2013-08-20 07:11:00,56.1,55.5,30.13,WNW,289,0.0,0.0,98,0.00,,---,0.00,47.00,VWS V14.01,2013-08-20 11:11:00,
2013-08-20 07:16:00,56.2,55.7,30.13,WNW,289,0.0,0.0,98,0.00,,---,0.00,58.00,VWS V14.01,2013-08-20 11:16:00,
2013-08-20 07:21:00,56.4,55.8,30.13,WNW,289,0.0,0.0,98,0.00,,---,0.00,70.00,VWS V14.01,2013-08-20 11:21:00,
2013-08-20 07:26:00,56.6,56.0,30.13,WNW,289,0.0,0.0,98,0.00,,---,0.00,77.00,VWS V14.01,2013-08-20 11:26:00,
2013-08-20 07:30:00,55.1,54.5,30.12,WNW,289,0.0,0.0,98,0.00,,---,0.00,12.00,VWS V14.01,2013-08-20 11:30:00,
2013-08-20 07:31:00,56.9,56.3,30.13,WNW,289,0.0,0.0,98,0.00,,---,0.00,77.00,VWS V14.01,2013-08-20 11:31:00,
2013-08-20 07:36:00,57.2,56.6,30.13,WNW,289,0.0,0.0,98,0.00,,---,0.00,86.00,VWS V14.01,2013-08-20 11:36:00,
2013-08-20 07:41:00,57.5,56.9,30.14,WNW,289,0.0,0.0,98,0.00,,---,0.00,100.00,VWS V14.01,2013-08-20 11:41:00,
2013-08-20 07:46:00,57.8,57.2,30.14,WNW,289,0.0,0.0,98,0.00,,---,0.00,111.00,VWS V14.01,2013-08-20 11:46:00,
2013-08-20 07:51:00,58.1,57.5,30.14,WNW,289,0.0,0.0,98,0.00,,---,0.00,114.00,VWS V14.01,2013-08-20 11:51:00,
2013-08-20 07:56:00,58.5,57.9,30.14,WNW,289,0.0,0.0,98,0.00,,---,0.00,142.00,VWS V14.01,2013-08-20 11:56:00,
2013-08-20 08:00:00,55.7,55.2,30.13,WNW,289,0.0,0.0,98,0.00,,---,0.00,39.00,VWS V14.01,2013-08-20 12:00:00,
2013-08-20 08:01:00,58.9,58.3,30.14,WNW,289,0.0,0.0,98,0.00,,---,0.00,165.00,VWS V14.01,2013-08-20 12:01:00,
2013-08-20 08:06:00,59.2,58.9,30.14,WNW,289,0.0,0.0,99,0.00,,---,0.00,160.00,VWS V14.01,2013-08-20 12:06:00,
2013-08-20 08:11:00,59.6,59.0,30.14,WNW,289,0.0,0.0,98,0.00,,---,0.00,160.00,VWS V14.01,2013-08-20 12:11:00,
2013-08-20 08:16:00,60.0,59.7,30.14,WNW,289,0.0,0.0,99,0.00,,---,0.00,236.00,VWS V14.01,2013-08-20 12:16:00,
2013-08-20 08:21:00,60.4,60.1,30.14,WNW,289,0.0,0.0,99,0.00,,---,0.00,244.00,VWS V14.01,2013-08-20 12:21:00,
2013-08-20 08:26:00,60.8,60.2,30.15,WNW,289,0.0,0.0,98,0.00,,---,0.00,271.00,VWS V14.01,2013-08-20 12:26:00,
2013-08-20 08:30:00,56.9,56.3,30.13,WNW,289,0.0,0.0,98,0.00,,---,0.00,70.00,VWS V14.01,2013-08-20 12:30:00,
2013-08-20 08:31:00,61.3,61.0,30.15,WNW,289,0.0,0.0,99,0.00,,---,0.00,285.00,VWS V14.01,2013-08-20 12:31:00,
2013-08-20 08:36:00,61.8,61.5,30.14,WNW,289,0.0,0.0,99,0.00,,---,0.00,338.00,VWS V14.01,2013-08-20 12:36:00,
2013-08-20 08:41:00,62.5,62.2,30.14,WNW,289,0.0,0.0,99,0.00,,---,0.00,359.00,VWS V14.01,2013-08-20 12:41:00,
2013-08-20 08:48:00,62.9,62.6,30.14,WNW,289,0.0,0.0,99,0.00,,---,0.00,334.00,VWS V14.01,2013-08-20 12:48:00,
2013-08-20 08:56:00,63.7,63.4,30.14,WNW,289,0.0,0.0,99,0.00,,---,0.00,410.00,VWS V14.01,2013-08-20 12:56:00,
2013-08-20 09:00:00,58.8,58.2,30.14,WNW,289,0.0,0.0,98,0.00,,---,0.00,153.00,VWS V14.01,2013-08-20 13:00:00,
2013-08-20 09:01:00,63.9,63.3,30.15,WNW,289,0.0,0.0,98,0.00,,---,0.00,422.00,VWS V14.01,2013-08-20 13:01:00,
2013-08-20 09:06:00,64.1,63.5,30.15,WNW,289,0.0,0.0,98,0.00,,---,0.00,434.00,VWS V14.01,2013-08-20 13:06:00,
2013-08-20 09:11:00,64.7,64.1,30.15,WNW,289,0.0,0.0,98,0.00,,---,0.00,448.00,VWS V14.01,2013-08-20 13:11:00,
2013-08-20 09:16:00,65.5,64.9,30.15,WNW,289,0.0,0.0,98,0.00,,---,0.00,464.00,VWS V14.01,2013-08-20 13:16:00,
2013-08-20 09:21:00,66.2,65.3,30.15,WNW,289,0.0,0.0,97,0.00,,---,0.00,473.00,VWS V14.01,2013-08-20 13:21:00,
2013-08-20 09:26:00,67.1,65.9,30.15,WNW,299,0.0,1.0,96,0.00,,---,0.00,485.00,VWS V14.01,2013-08-20 13:26:00,
2013-08-20 09:30:00,61.2,60.9,30.15,WNW,289,0.0,0.0,99,0.00,,---,0.00,225.00,VWS V14.01,2013-08-20 13:30:00,
2013-08-20 09:31:00,67.7,65.9,30.15,WNW,299,0.0,0.0,94,0.00,,---,0.00,503.00,VWS V14.01,2013-08-20 13:31:00,
2013-08-20 09:36:00,68.3,66.2,30.15,SE,136,0.0,4.0,93,0.00,,---,0.00,519.00,VWS V14.01,2013-08-20 13:36:00,
2013-08-20 09:41:00,68.7,66.0,30.15,SE,136,0.0,4.0,91,0.00,,---,0.00,534.00,VWS V14.01,2013-08-20 13:41:00,
2013-08-20 09:46:00,69.2,66.2,30.15,SE,136,0.0,4.0,90,0.00,,---,0.00,545.00,VWS V14.01,2013-08-20 13:46:00,
2013-08-20 09:51:00,69.8,66.7,30.15,SE,136,0.0,4.0,90,0.00,,---,0.00,557.00,VWS V14.01,2013-08-20 13:51:00,
2013-08-20 09:56:00,70.6,66.9,30.15,NNW,342,0.0,4.0,88,0.00,,---,0.00,570.00,VWS V14.01,2013-08-20 13:56:00,
2013-08-20 10:00:00,63.9,63.3,30.15,WNW,289,0.0,0.0,98,0.00,,---,0.00,420.00,VWS V14.01,2013-08-20 14:00:00,
2013-08-20 10:01:00,71.2,67.5,30.15,East,84,0.0,2.0,88,0.00,,---,0.00,585.00,VWS V14.01,2013-08-20 14:01:00,
2013-08-20 10:06:00,71.7,67.6,30.15,East,91,0.0,3.0,87,0.00,,---,0.00,594.00,VWS V14.01,2013-08-20 14:06:00,
2013-08-20 10:11:00,72.1,67.3,30.15,East,91,0.0,3.0,85,0.00,,---,0.00,601.00,VWS V14.01,2013-08-20 14:11:00,
2013-08-20 10:16:00,72.6,67.8,30.15,East,91,0.0,3.0,85,0.00,,---,0.00,615.00,VWS V14.01,2013-08-20 14:16:00,
2013-08-20 10:21:00,73.0,67.2,30.15,West,266,0.0,4.0,82,0.00,,---,0.00,624.00,VWS V14.01,2013-08-20 14:21:00,
2013-08-20 10:26:00,73.1,68.0,30.15,West,266,0.0,4.0,84,0.00,,---,0.00,647.00,VWS V14.01,2013-08-20 14:26:00,
2013-08-20 10:30:00,67.5,66.0,30.15,WNW,299,0.0,1.0,95,0.00,,---,0.00,499.00,VWS V14.01,2013-08-20 14:30:00,
2013-08-20 10:31:00,73.3,67.5,30.15,NNW,348,0.0,0.0,82,0.00,,---,0.00,656.00,VWS V14.01,2013-08-20 14:31:00,
2013-08-20 10:36:00,74.0,68.5,30.15,SE,138,0.0,0.0,83,0.00,,---,0.00,664.00,VWS V14.01,2013-08-20 14:36:00,
2013-08-20 10:41:00,74.4,68.2,30.15,SE,138,0.0,0.0,81,0.00,,---,0.00,673.00,VWS V14.01,2013-08-20 14:41:00,
2013-08-20 10:46:00,74.3,67.4,30.15,WSW,247,1.0,1.0,79,0.00,,---,0.00,675.00,VWS V14.01,2013-08-20 14:46:00,
2013-08-20 10:51:00,74.1,67.2,30.15,West,269,4.0,4.0,79,0.00,,---,0.00,691.00,VWS V14.01,2013-08-20 14:51:00,
2013-08-20 10:56:00,74.6,66.9,30.15,West,267,1.0,4.0,77,0.00,,---,0.00,698.00,VWS V14.01,2013-08-20 14:56:00,
2013-08-20 11:00:00,71.0,67.3,30.15,East,84,2.0,4.0,88,0.00,,---,0.00,578.00,VWS V14.01,2013-08-20 15:00:00,
2013-08-20 11:01:00,75.5,66.6,30.15,East,81,0.0,0.0,74,0.00,,---,0.00,705.00,VWS V14.01,2013-08-20 15:01:00,
2013-08-20 11:06:00,76.2,66.9,30.15,WSW,246,0.0,3.0,73,0.00,,---,0.00,710.00,VWS V14.01,2013-08-20 15:06:00,
2013-08-20 11:11:00,76.9,67.6,30.15,West,272,0.0,3.0,73,0.00,,---,0.00,719.00,VWS V14.01,2013-08-20 15:11:00,
2013-08-20 11:16:00,76.7,65.8,30.14,WSW,252,2.0,4.0,69,0.00,,---,0.00,726.00,VWS V14.01,2013-08-20 15:16:00,
2013-08-20 11:21:00,77.3,66.8,30.14,WNW,300,1.0,4.0,70,0.00,,---,0.00,731.00,VWS V14.01,2013-08-20 15:21:00,
2013-08-20 11:26:00,77.6,66.2,30.14,North,360,2.0,5.0,68,0.00,,---,0.00,745.00,VWS V14.01,2013-08-20 15:26:00,
2013-08-20 11:30:00,73.2,67.4,30.15,NNW,348,0.0,4.0,82,0.00,,---,0.00,649.00,VWS V14.01,2013-08-20 15:30:00,
2013-08-20 11:31:00,77.8,66.4,30.14,West,275,0.0,5.0,68,0.00,,---,0.00,754.00,VWS V14.01,2013-08-20 15:31:00,
2013-08-20 11:36:00,77.9,66.9,30.14,WSW,251,3.0,5.0,69,0.00,,---,0.00,759.00,VWS V14.01,2013-08-20 15:36:00,
2013-08-20 11:41:00,78.3,66.4,30.14,West,279,0.0,6.0,67,0.00,,---,0.00,766.00,VWS V14.01,2013-08-20 15:41:00,
2013-08-20 11:46:00,78.5,67.1,30.14,WSW,255,4.0,6.0,68,0.00,,---,0.00,766.00,VWS V14.01,2013-08-20 15:46:00,
2013-08-20 11:51:00,78.2,66.8,30.14,ENE,59,0.0,6.0,68,0.00,,---,0.00,772.00,VWS V14.01,2013-08-20 15:51:00,
2013-08-20 11:56:00,78.5,66.2,30.14,West,279,0.0,6.0,66,0.00,,---,0.00,775.00,VWS V14.01,2013-08-20 15:56:00,
2013-08-20 12:00:00,75.3,65.7,30.15,East,81,0.0,5.0,72,0.00,,---,0.00,703.00,VWS V14.01,2013-08-20 16:00:00,
2013-08-20 12:01:00,79.0,66.7,30.14,WNW,301,3.0,3.0,66,0.00,,---,0.00,779.00,VWS V14.01,2013-08-20 16:01:00,
2013-08-20 12:06:00,78.9,66.6,30.14,West,271,0.0,4.0,66,0.00,,---,0.00,784.00,VWS V14.01,2013-08-20 16:06:00,
2013-08-20 12:11:00,79.0,67.1,30.14,SSW,203,0.0,4.0,67,0.00,,---,0.00,786.00,VWS V14.01,2013-08-20 16:11:00,
2013-08-20 12:16:00,78.7,66.8,30.14,WSW,250,0.0,5.0,67,0.00,,---,0.00,784.00,VWS V14.01,2013-08-20 16:16:00,
2013-08-20 12:21:00,78.5,65.3,30.14,West,275,0.0,5.0,64,0.00,,---,0.00,795.00,VWS V14.01,2013-08-20 16:21:00,
2013-08-20 12:26:00,78.6,65.9,30.14,WSW,257,3.0,7.0,65,0.00,,---,0.00,796.00,VWS V14.01,2013-08-20 16:26:00,
2013-08-20 12:30:00,77.8,65.5,30.14,West,275,5.0,5.0,66,0.00,,---,0.00,751.00,VWS V14.01,2013-08-20 16:30:00,
2013-08-20 12:31:00,78.6,65.9,30.14,West,269,0.0,0.0,65,0.00,,---,0.00,800.00,VWS V14.01,2013-08-20 16:31:00,
2013-08-20 12:36:00,78.8,64.7,30.14,West,263,0.0,5.0,62,0.00,,---,0.00,809.00,VWS V14.01,2013-08-20 16:36:00,
2013-08-20 12:41:00,79.0,64.4,30.14,NW,304,3.0,6.0,61,0.00,,---,0.00,809.00,VWS V14.01,2013-08-20 16:41:00,
2013-08-20 12:46:00,79.2,65.1,30.13,West,264,0.0,6.0,62,0.00,,---,0.00,823.00,VWS V14.01,2013-08-20 16:46:00,
2013-08-20 12:51:00,79.6,65.9,30.14,West,278,8.0,8.0,63,0.00,,---,0.00,831.00,VWS V14.01,2013-08-20 16:51:00,
2013-08-20 12:56:00,80.0,65.4,30.13,WSW,255,0.0,8.0,61,0.00,,---,0.00,812.00,VWS V14.01,2013-08-20 16:56:00,
2013-08-20 13:00:00,78.9,66.6,30.14,ENE,69,0.0,6.0,66,0.00,,---,0.00,782.00,VWS V14.01,2013-08-20 17:00:00,
2013-08-20 13:01:00,80.2,65.5,30.13,West,276,0.0,0.0,61,0.00,,---,0.00,809.00,VWS V14.01,2013-08-20 17:01:00,
2013-08-20 13:06:00,80.5,64.9,30.13,West,267,2.0,5.0,59,0.00,,---,0.00,810.00,VWS V14.01,2013-08-20 17:06:00,
2013-08-20 13:11:00,80.5,64.9,30.13,West,272,6.0,8.0,59,0.00,,---,0.00,775.00,VWS V14.01,2013-08-20 17:11:00,
2013-08-20 13:16:00,80.0,64.4,30.13,West,269,0.0,8.0,59,0.00,,---,0.00,831.00,VWS V14.01,2013-08-20 17:16:00,
2013-08-20 13:21:00,80.2,65.5,30.13,ESE,121,1.0,8.0,61,0.00,,---,0.00,810.00,VWS V14.01,2013-08-20 17:21:00,
2013-08-20 13:26:00,80.9,65.2,30.13,West,270,3.0,8.0,59,0.00,,---,0.00,807.00,VWS V14.01,2013-08-20 17:26:00,
2013-08-20 13:30:00,78.6,65.4,30.14,West,269,0.0,7.0,64,0.00,,---,0.00,798.00,VWS V14.01,2013-08-20 17:30:00,
2013-08-20 13:31:00,81.0,65.3,30.13,WSW,254,0.0,3.0,59,0.00,,---,0.00,784.00,VWS V14.01,2013-08-20 17:31:00,
2013-08-20 13:36:00,81.3,64.1,30.13,West,259,0.0,3.0,56,0.00,,---,0.00,791.00,VWS V14.01,2013-08-20 17:36:00,
2013-08-20 13:41:00,81.5,65.3,30.13,West,279,0.0,5.0,58,0.00,,---,0.00,777.00,VWS V14.01,2013-08-20 17:41:00,
2013-08-20 13:46:00,81.5,63.8,30.13,ENE,57,5.0,6.0,55,0.00,,---,0.00,780.00,VWS V14.01,2013-08-20 17:46:00,
2013-08-20 13:51:00,81.5,63.3,30.12,ESE,111,4.0,6.0,54,0.00,,---,0.00,796.00,VWS V14.01,2013-08-20 17:51:00,
2013-08-20 13:56:00,82.0,64.8,30.12,East,90,0.0,6.0,56,0.00,,---,0.00,812.00,VWS V14.01,2013-08-20 17:56:00,
2013-08-20 14:00:00,80.1,65.4,30.13,WSW,256,0.0,8.0,61,0.00,,---,0.00,814.00,VWS V14.01,2013-08-20 18:00:00,
2013-08-20 14:01:00,81.8,64.1,30.12,NW,319,0.0,2.0,55,0.00,,---,0.00,802.00,VWS V14.01,2013-08-20 18:01:00,
2013-08-20 14:06:00,81.7,64.0,30.12,WSW,239,2.0,7.0,55,0.00,,---,0.00,803.00,VWS V14.01,2013-08-20 18:06:00,
2013-08-20 14:11:00,81.8,66.6,30.12,ENE,69,4.0,7.0,60,0.00,,---,0.00,789.00,VWS V14.01,2013-08-20 18:11:00,
2013-08-20 14:16:00,81.9,65.2,30.12,WSW,250,5.0,7.0,57,0.00,,---,0.00,765.00,VWS V14.01,2013-08-20 18:16:00,
2013-08-20 14:21:00,81.6,64.4,30.12,WNW,292,0.0,7.0,56,0.00,,---,0.00,740.00,VWS V14.01,2013-08-20 18:21:00,
2013-08-20 14:26:00,81.7,66.0,30.12,East,82,2.0,7.0,59,0.00,,---,0.00,726.00,VWS V14.01,2013-08-20 18:26:00,
2013-08-20 14:30:00,80.9,65.2,30.13,WSW,254,3.0,8.0,59,0.00,,---,0.00,809.00,VWS V14.01,2013-08-20 18:30:00,
2013-08-20 14:31:00,81.9,65.2,30.11,NE,38,0.0,2.0,57,0.00,,---,0.00,710.00,VWS V14.01,2013-08-20 18:31:00,
2013-08-20 14:36:00,81.9,66.2,30.11,NE,53,0.0,4.0,59,0.00,,---,0.00,745.00,VWS V14.01,2013-08-20 18:36:00,
2013-08-20 14:41:00,82.3,67.0,30.11,NE,53,0.0,4.0,60,0.00,,---,0.00,738.00,VWS V14.01,2013-08-20 18:41:00,
2013-08-20 14:46:00,82.5,66.2,30.11,NNW,334,0.0,7.0,58,0.00,,---,0.00,728.00,VWS V14.01,2013-08-20 18:46:00,
2013-08-20 14:51:00,82.2,65.5,30.11,NNW,334,0.0,7.0,57,0.00,,---,0.00,710.00,VWS V14.01,2013-08-20 18:51:00,
2013-08-20 14:56:00,81.9,65.7,30.11,East,80,0.0,7.0,58,0.00,,---,0.00,693.00,VWS V14.01,2013-08-20 18:56:00,
2013-08-20 15:00:00,81.9,62.6,30.12,NW,316,0.0,6.0,52,0.00,,---,0.00,844.00,VWS V14.01,2013-08-20 19:00:00,
2013-08-20 15:01:00,81.8,65.6,30.11,WNW,282,0.0,0.0,58,0.00,,---,0.00,679.00,VWS V14.01,2013-08-20 19:01:00,
2013-08-20 15:06:00,82.1,65.9,30.11,West,266,0.0,5.0,58,0.00,,---,0.00,675.00,VWS V14.01,2013-08-20 19:06:00,
2013-08-20 15:11:00,82.3,67.0,30.11,ENE,73,2.0,5.0,60,0.00,,---,0.00,675.00,VWS V14.01,2013-08-20 19:11:00,
2013-08-20 15:16:00,82.8,65.5,30.11,WNW,287,0.0,5.0,56,0.00,,---,0.00,663.00,VWS V14.01,2013-08-20 19:16:00,
2013-08-20 15:21:00,82.6,65.8,30.11,WNW,293,0.0,5.0,57,0.00,,---,0.00,659.00,VWS V14.01,2013-08-20 19:21:00,
2013-08-20 15:26:00,82.0,65.3,30.11,East,96,0.0,5.0,57,0.00,,---,0.00,649.00,VWS V14.01,2013-08-20 19:26:00,
2013-08-20 15:30:00,81.9,66.2,30.11,East,92,2.0,7.0,59,0.00,,---,0.00,721.00,VWS V14.01,2013-08-20 19:30:00,
2013-08-20 15:31:00,81.8,65.1,30.11,WNW,296,4.0,5.0,57,0.00,,---,0.00,652.00,VWS V14.01,2013-08-20 19:31:00,
2013-08-20 15:36:00,81.8,65.6,30.11,West,265,0.0,5.0,58,0.00,,---,0.00,207.00,VWS V14.01,2013-08-20 19:36:00,
2013-08-20 15:41:00,81.7,65.0,30.11,West,265,0.0,5.0,57,0.00,,---,0.00,206.00,VWS V14.01,2013-08-20 19:41:00,
2013-08-20 15:46:00,81.4,66.2,30.11,West,265,0.0,5.0,60,0.00,,---,0.00,568.00,VWS V14.01,2013-08-20 19:46:00,
2013-08-20 15:51:00,81.1,65.4,30.11,West,264,0.0,6.0,59,0.00,,---,0.00,603.00,VWS V14.01,2013-08-20 19:51:00,
2013-08-20 15:56:00,81.0,66.3,30.11,West,264,0.0,6.0,61,0.00,,---,0.00,169.00,VWS V14.01,2013-08-20 19:56:00,
2013-08-20 16:00:00,81.8,65.6,30.11,WNW,282,0.0,7.0,58,0.00,,---,0.00,687.00,VWS V14.01,2013-08-20 20:00:00,
2013-08-20 16:01:00,81.0,66.3,30.11,West,264,0.0,1.0,61,0.00,,---,0.00,541.00,VWS V14.01,2013-08-20 20:01:00,
2013-08-20 16:06:00,81.2,65.5,30.11,West,264,4.0,4.0,59,0.00,,---,0.00,522.00,VWS V14.01,2013-08-20 20:06:00,
2013-08-20 16:11:00,81.6,65.9,30.11,NE,53,1.0,4.0,59,0.00,,---,0.00,503.00,VWS V14.01,2013-08-20 20:11:00,
2013-08-20 16:16:00,81.5,65.8,30.11,West,274,0.0,5.0,59,0.00,,---,0.00,489.00,VWS V14.01,2013-08-20 20:16:00,
2013-08-20 16:21:00,81.6,65.4,30.10,West,266,0.0,5.0,58,0.00,,---,0.00,476.00,VWS V14.01,2013-08-20 20:21:00,
2013-08-20 16:26:00,81.9,66.2,30.10,West,266,0.0,5.0,59,0.00,,---,0.00,156.00,VWS V14.01,2013-08-20 20:26:00,
2013-08-20 16:30:00,81.8,64.6,30.11,West,278,2.0,7.0,56,0.00,,---,0.00,649.00,VWS V14.01,2013-08-20 20:30:00,
2013-08-20 16:31:00,81.8,66.1,30.10,West,266,0.0,0.0,59,0.00,,---,0.00,134.00,VWS V14.01,2013-08-20 20:31:00,
2013-08-20 16:36:00,81.2,64.5,30.10,West,266,0.0,2.0,57,0.00,,---,0.00,369.00,VWS V14.01,2013-08-20 20:36:00,
2013-08-20 16:41:00,80.7,66.0,30.11,West,276,3.0,6.0,61,0.00,,---,0.00,118.00,VWS V14.01,2013-08-20 20:41:00,
2013-08-20 16:46:00,80.1,66.8,30.11,West,276,0.0,6.0,64,0.00,,---,0.00,102.00,VWS V14.01,2013-08-20 20:46:00,
2013-08-20 16:51:00,79.8,68.3,30.11,West,276,0.0,6.0,68,0.00,,---,0.00,415.00,VWS V14.01,2013-08-20 20:51:00,
2013-08-20 16:56:00,79.6,66.8,30.10,West,276,0.0,6.0,65,0.00,,---,0.00,399.00,VWS V14.01,2013-08-20 20:56:00,
2013-08-20 17:00:00,81.0,66.8,30.11,West,264,0.0,6.0,62,0.00,,---,0.00,169.00,VWS V14.01,2013-08-20 21:00:00,
2013-08-20 17:01:00,79.6,67.2,30.11,West,276,0.0,0.0,66,0.00,,---,0.00,399.00,VWS V14.01,2013-08-20 21:01:00,
2013-08-20 17:06:00,79.7,67.3,30.11,West,276,0.0,0.0,66,0.00,,---,0.00,113.00,VWS V14.01,2013-08-20 21:06:00,
2013-08-20 17:11:00,79.8,67.4,30.10,West,276,0.0,1.0,66,0.00,,---,0.00,350.00,VWS V14.01,2013-08-20 21:11:00,
2013-08-20 17:16:00,80.1,67.3,30.11,West,276,0.0,1.0,65,0.00,,---,0.00,339.00,VWS V14.01,2013-08-20 21:16:00,
2013-08-20 17:21:00,80.2,65.5,30.10,East,87,0.0,1.0,61,0.00,,---,0.00,308.00,VWS V14.01,2013-08-20 21:21:00,
2013-08-20 17:26:00,80.4,67.1,30.10,East,87,0.0,1.0,64,0.00,,---,0.00,287.00,VWS V14.01,2013-08-20 21:26:00,
2013-08-20 17:30:00,81.9,65.7,30.10,West,266,0.0,5.0,58,0.00,,---,0.00,141.00,VWS V14.01,2013-08-20 21:30:00,
2013-08-20 17:31:00,80.7,66.9,30.10,East,87,0.0,0.0,63,0.00,,---,0.00,278.00,VWS V14.01,2013-08-20 21:31:00,
2013-08-20 17:36:00,80.6,66.4,30.10,East,87,0.0,0.0,62,0.00,,---,0.00,262.00,VWS V14.01,2013-08-20 21:36:00,
2013-08-20 17:41:00,80.3,65.6,30.11,East,87,0.0,0.0,61,0.00,,---,0.00,250.00,VWS V14.01,2013-08-20 21:41:00,
2013-08-20 17:46:00,80.5,66.3,30.11,East,87,0.0,0.0,62,0.00,,---,0.00,229.00,VWS V14.01,2013-08-20 21:46:00,
2013-08-20 17:51:00,80.6,68.6,30.11,East,87,0.0,0.0,67,0.00,,---,0.00,214.00,VWS V14.01,2013-08-20 21:51:00,
2013-08-20 17:56:00,80.9,70.6,30.11,East,87,0.0,0.0,71,0.00,,---,0.00,86.00,VWS V14.01,2013-08-20 21:56:00,
2013-08-20 18:00:00,79.6,66.8,30.11,West,276,0.0,6.0,65,0.00,,---,0.00,399.00,VWS V14.01,2013-08-20 22:00:00,
2013-08-20 18:01:00,80.4,68.4,30.11,East,87,0.0,0.0,67,0.00,,---,0.00,86.00,VWS V14.01,2013-08-20 22:01:00,
2013-08-20 18:06:00,80.1,69.9,30.11,East,87,0.0,0.0,71,0.00,,---,0.00,72.00,VWS V14.01,2013-08-20 22:06:00,
2013-08-20 18:11:00,79.6,70.2,30.11,East,87,0.0,0.0,73,0.00,,---,0.00,65.00,VWS V14.01,2013-08-20 22:11:00,
2013-08-20 18:16:00,79.0,70.4,30.11,East,87,0.0,0.0,75,0.00,,---,0.00,70.00,VWS V14.01,2013-08-20 22:16:00,
2013-08-20 18:21:00,78.5,70.3,30.11,East,87,0.0,0.0,76,0.00,,---,0.00,54.00,VWS V14.01,2013-08-20 22:21:00,
2013-08-20 18:26:00,77.9,70.1,30.11,East,87,0.0,0.0,77,0.00,,---,0.00,53.00,VWS V14.01,2013-08-20 22:26:00,
2013-08-20 18:30:00,80.6,66.8,30.10,East,87,0.0,1.0,63,0.00,,---,0.00,281.00,VWS V14.01,2013-08-20 22:30:00,
2013-08-20 18:31:00,77.6,70.2,30.11,East,87,0.0,0.0,78,0.00,,---,0.00,54.00,VWS V14.01,2013-08-20 22:31:00,
2013-08-20 18:36:00,77.3,69.9,30.11,East,87,0.0,0.0,78,0.00,,---,0.00,49.00,VWS V14.01,2013-08-20 22:36:00,
2013-08-20 18:41:00,76.9,69.5,30.11,East,87,0.0,0.0,78,0.00,,---,0.00,44.00,VWS V14.01,2013-08-20 22:41:00,
2013-08-20 18:46:00,76.4,69.0,30.11,East,87,0.0,0.0,78,0.00,,---,0.00,39.00,VWS V14.01,2013-08-20 22:46:00,
2013-08-20 18:51:00,75.8,68.8,30.11,East,87,0.0,0.0,79,0.00,,---,0.00,35.00,VWS V14.01,2013-08-20 22:51:00,
2013-08-20 18:56:00,75.2,68.6,30.11,East,87,0.0,0.0,80,0.00,,---,0.00,32.00,VWS V14.01,2013-08-20 22:56:00,
2013-08-20 19:00:00,80.6,68.6,30.11,East,87,0.0,0.0,67,0.00,,---,0.00,84.00,VWS V14.01,2013-08-20 23:00:00,
2013-08-20 19:01:00,74.8,68.6,30.11,East,87,0.0,0.0,81,0.00,,---,0.00,28.00,VWS V14.01,2013-08-20 23:01:00,
2013-08-20 19:06:00,74.4,68.6,30.11,East,87,0.0,0.0,82,0.00,,---,0.00,25.00,VWS V14.01,2013-08-20 23:06:00,
2013-08-20 19:11:00,74.2,68.7,30.11,East,87,0.0,0.0,83,0.00,,---,0.00,21.00,VWS V14.01,2013-08-20 23:11:00,
2013-08-20 19:16:00,73.9,68.8,30.11,East,87,0.0,0.0,84,0.00,,---,0.00,19.00,VWS V14.01,2013-08-20 23:16:00,
2013-08-20 19:21:00,73.7,68.6,30.11,East,87,0.0,0.0,84,0.00,,---,0.00,16.00,VWS V14.01,2013-08-20 23:21:00,
2013-08-20 19:26:00,73.4,67.9,30.11,East,87,0.0,0.0,83,0.00,,---,0.00,12.00,VWS V14.01,2013-08-20 23:26:00,
2013-08-20 19:30:00,77.7,70.3,30.10,East,87,0.0,0.0,78,0.00,,---,0.00,56.00,VWS V14.01,2013-08-20 23:30:00,
2013-08-20 19:31:00,73.0,67.9,30.11,East,87,0.0,0.0,84,0.00,,---,0.00,9.00,VWS V14.01,2013-08-20 23:31:00,
2013-08-20 19:36:00,72.7,67.6,30.12,East,87,0.0,0.0,84,0.00,,---,0.00,7.00,VWS V14.01,2013-08-20 23:36:00,
2013-08-20 19:41:00,72.3,67.5,30.12,East,87,0.0,0.0,85,0.00,,---,0.00,5.00,VWS V14.01,2013-08-20 23:41:00,
2013-08-20 19:46:00,72.0,67.6,30.12,East,87,0.0,0.0,86,0.00,,---,0.00,0.00,VWS V14.01,2013-08-20 23:46:00,
2013-08-20 19:51:00,71.6,67.2,30.12,East,87,0.0,0.0,86,0.00,,---,0.00,0.00,VWS V14.01,2013-08-20 23:51:00,
2013-08-20 19:56:00,71.2,67.1,30.12,East,87,0.0,0.0,87,0.00,,---,0.00,0.00,VWS V14.01,2013-08-20 23:56:00,
2013-08-20 20:00:00,74.8,68.6,30.11,East,87,0.0,0.0,81,0.00,,---,0.00,30.00,VWS V14.01,2013-08-21 00:00:00,
2013-08-20 20:01:00,70.8,67.1,30.12,East,87,0.0,0.0,88,0.00,,---,0.00,0.00,VWS V14.01,2013-08-21 00:01:00,
2013-08-20 20:06:00,70.4,66.7,30.12,East,87,0.0,0.0,88,0.00,,---,0.00,0.00,VWS V14.01,2013-08-21 00:06:00,
2013-08-20 20:11:00,70.0,66.3,30.12,East,87,0.0,0.0,88,0.00,,---,0.00,0.00,VWS V14.01,2013-08-21 00:11:00,
2013-08-20 20:16:00,69.7,66.3,30.12,East,87,0.0,0.0,89,0.00,,---,0.00,0.00,VWS V14.01,2013-08-21 00:16:00,
2013-08-20 20:21:00,69.3,65.9,30.12,East,87,0.0,0.0,89,0.00,,---,0.00,0.00,VWS V14.01,2013-08-21 00:21:00,
2013-08-20 20:26:00,69.1,66.1,30.13,East,87,0.0,0.0,90,0.00,,---,0.00,0.00,VWS V14.01,2013-08-21 00:26:00,
2013-08-20 20:30:00,73.1,68.0,30.11,East,87,0.0,0.0,84,0.00,,---,0.00,11.00,VWS V14.01,2013-08-21 00:30:00,
2013-08-20 20:31:00,68.8,65.8,30.13,East,87,0.0,0.0,90,0.00,,---,0.00,0.00,VWS V14.01,2013-08-21 00:31:00,
2013-08-20 20:36:00,68.5,65.5,30.13,East,87,0.0,0.0,90,0.00,,---,0.00,0.00,VWS V14.01,2013-08-21 00:36:00,
2013-08-20 20:41:00,68.2,65.5,30.13,East,87,0.0,0.0,91,0.00,,---,0.00,0.00,VWS V14.01,2013-08-21 00:41:00,
2013-08-20 20:46:00,67.9,65.2,30.14,East,87,0.0,0.0,91,0.00,,---,0.00,0.00,VWS V14.01,2013-08-21 00:46:00,
2013-08-20 20:51:00,67.7,65.0,30.14,East,87,0.0,0.0,91,0.00,,---,0.00,0.00,VWS V14.01,2013-08-21 00:51:00,
2013-08-20 20:56:00,67.4,65.0,30.14,East,87,0.0,0.0,92,0.00,,---,0.00,0.00,VWS V14.01,2013-08-21 00:56:00,
2013-08-20 21:00:00,70.9,67.2,30.12,East,87,0.0,0.0,88,0.00,,---,0.00,0.00,VWS V14.01,2013-08-21 01:00:00,
2013-08-20 21:01:00,67.2,64.8,30.14,East,87,0.0,0.0,92,0.00,,---,0.00,0.00,VWS V14.01,2013-08-21 01:01:00,
2013-08-20 21:06:00,66.9,64.5,30.14,East,87,0.0,0.0,92,0.00,,---,0.00,0.00,VWS V14.01,2013-08-21 01:06:00,
2013-08-20 21:11:00,66.7,64.3,30.14,East,87,0.0,0.0,92,0.00,,---,0.00,0.00,VWS V14.01,2013-08-21 01:11:00,
2013-08-20 21:16:00,66.4,64.0,30.14,East,87,0.0,0.0,92,0.00,,---,0.00,0.00,VWS V14.01,2013-08-21 01:16:00,
2013-08-20 21:19:00,66.3,63.9,30.15,East,87,0.0,0.0,92,0.00,,---,0.00,0.00,VWS V14.01,2013-08-21 01:19:00,
2013-08-20 21:24:00,66.1,64.0,30.15,East,87,0.0,0.0,93,0.00,,---,0.00,0.00,VWS V14.01,2013-08-21 01:24:00,
2013-08-20 21:29:00,65.9,63.8,30.15,East,87,0.0,0.0,93,0.00,,---,0.00,0.00,VWS V14.01,2013-08-21 01:29:00,
2013-08-20 21:30:00,68.9,65.8,30.13,East,87,0.0,0.0,90,0.00,,---,0.00,0.00,VWS V14.01,2013-08-21 01:30:00,
2013-08-20 21:34:00,65.8,63.7,30.15,East,87,0.0,0.0,93,0.00,,---,0.00,0.00,VWS V14.01,2013-08-21 01:34:00,
2013-08-20 21:39:00,65.7,63.9,30.15,East,87,0.0,0.0,94,0.00,,---,0.00,0.00,VWS V14.01,2013-08-21 01:39:00,
2013-08-20 21:44:00,65.5,63.7,30.15,East,87,0.0,0.0,94,0.00,,---,0.00,0.00,VWS V14.01,2013-08-21 01:44:00,
2013-08-20 21:49:00,65.3,63.5,30.15,East,87,0.0,0.0,94,0.00,,---,0.00,0.00,VWS V14.01,2013-08-21 01:49:00,
2013-08-20 21:54:00,65.1,63.3,30.16,East,87,0.0,0.0,94,0.00,,---,0.00,0.00,VWS V14.01,2013-08-21 01:54:00,
2013-08-20 21:59:00,65.0,63.2,30.16,East,87,0.0,0.0,94,0.00,,---,0.00,0.00,VWS V14.01,2013-08-21 01:59:00,
2013-08-20 22:00:00,67.2,64.8,30.14,East,87,0.0,0.0,92,0.00,,---,0.00,0.00,VWS V14.01,2013-08-21 02:00:00,
2013-08-20 22:05:00,64.7,62.9,30.16,East,87,0.0,0.0,94,0.00,,---,0.00,0.00,VWS V14.01,2013-08-21 02:05:00,
2013-08-20 22:10:00,64.4,62.6,30.15,East,87,0.0,0.0,94,0.00,,---,0.00,0.00,VWS V14.01,2013-08-21 02:10:00,
2013-08-20 22:15:00,64.3,62.5,30.15,East,87,0.0,0.0,94,0.00,,---,0.00,0.00,VWS V14.01,2013-08-21 02:15:00,
2013-08-20 22:20:00,64.1,62.3,30.16,East,87,0.0,0.0,94,0.00,,---,0.00,0.00,VWS V14.01,2013-08-21 02:20:00,
2013-08-20 22:25:00,64.0,62.5,30.15,East,87,0.0,0.0,95,0.00,,---,0.00,0.00,VWS V14.01,2013-08-21 02:25:00,
2013-08-20 22:30:00,63.9,62.4,30.15,East,87,0.0,0.0,95,0.00,,---,0.00,0.00,VWS V14.01,2013-08-21 02:30:00,
2013-08-20 22:35:00,63.7,62.2,30.15,East,87,0.0,0.0,95,0.00,,---,0.00,0.00,VWS V14.01,2013-08-21 02:35:00,
2013-08-20 22:40:00,63.6,62.2,30.16,East,87,0.0,0.0,95,0.00,,---,0.00,0.00,VWS V14.01,2013-08-21 02:40:00,
2013-08-20 22:45:00,63.4,62.0,30.16,East,87,0.0,0.0,95,0.00,,---,0.00,0.00,VWS V14.01,2013-08-21 02:45:00,
2013-08-20 22:50:00,63.2,61.8,30.16,East,87,0.0,0.0,95,0.00,,---,0.00,0.00,VWS V14.01,2013-08-21 02:50:00,
2013-08-20 22:55:00,63.0,61.5,30.16,East,87,0.0,0.0,95,0.00,,---,0.00,0.00,VWS V14.01,2013-08-21 02:55:00,
2013-08-20 23:00:00,62.9,61.5,30.16,East,87,0.0,0.0,95,0.00,,---,0.00,0.00,VWS V14.01,2013-08-21 03:00:00,
2013-08-20 23:05:00,62.9,61.5,30.16,East,87,0.0,0.0,95,0.00,,---,0.00,0.00,VWS V14.01,2013-08-21 03:05:00,
2013-08-20 23:10:00,62.8,61.3,30.16,East,87,0.0,0.0,95,0.00,,---,0.00,0.00,VWS V14.01,2013-08-21 03:10:00,
2013-08-20 23:15:00,62.7,61.2,30.16,East,87,0.0,0.0,95,0.00,,---,0.00,0.00,VWS V14.01,2013-08-21 03:15:00,
2013-08-20 23:20:00,62.7,61.2,30.16,East,87,0.0,0.0,95,0.00,,---,0.00,0.00,VWS V14.01,2013-08-21 03:20:00,
2013-08-20 23:25:00,62.6,61.2,30.16,East,87,0.0,0.0,95,0.00,,---,0.00,0.00,VWS V14.01,2013-08-21 03:25:00,
2013-08-20 23:30:00,62.3,60.8,30.16,East,87,0.0,0.0,95,0.00,,---,0.00,0.00,VWS V14.01,2013-08-21 03:30:00,
2013-08-20 23:35:00,62.0,60.6,30.16,East,87,0.0,0.0,95,0.00,,---,0.00,0.00,VWS V14.01,2013-08-21 03:35:00,
2013-08-20 23:40:00,61.9,60.5,30.16,East,87,0.0,0.0,95,0.00,,---,0.00,0.00,VWS V14.01,2013-08-21 03:40:00,
2013-08-20 23:45:00,61.8,60.7,30.16,East,87,0.0,0.0,96,0.00,,---,0.00,0.00,VWS V14.01,2013-08-21 03:45:00,
2013-08-20 23:50:00,61.8,60.7,30.16,East,87,0.0,0.0,96,0.00,,---,0.00,0.00,VWS V14.01,2013-08-21 03:50:00,
2013-08-20 23:55:00,61.8,60.7,30.16,East,87,0.0,0.0,96,0.00,,---,0.00,0.00,VWS V14.01,2013-08-21 03:55:00,